Flag for Poland Weather past 2 weeks in Kraków, Poland

Now
50 °F

Scattered clouds.


Feels Like: 43 °F
Forecast: 38 / 49 °F
Wind: 25 mph from Southwest

Location: Krakow Airport

Current Time: Mar 30, 2015 at 12:47:29 PM

Latest Report: Mar 30, 2015 at 12:00 PM


Visibility: N/A

Pressure: 29.36 "Hg

Humidity: 58%

Dew point: 36 °F

Location of KrakówLocation

Historic Weather in Kraków — Graph

°F

Kraków temperature yesterday

Maximum temperature yesterday: 55 °F (at 3:00 PM)
Minimum temperature yesterday: 34 °F (at 5:30 AM)
Average temperature yesterday: 45 °F

Past Weeks' High & Low Weather Summary

 TemperatureHumidityPressure
High64 °F (Mar 25, 1:30 PM)100% (Mar 21, 3:30 AM)30.60 "Hg (Mar 21, 3:30 AM)
Low23 °F (Mar 23, 1:30 AM)27% (Mar 21, 1:30 PM)29.30 "Hg (Mar 30, 5:30 AM)
Average43 °F70%30.09 "Hg
* Reported Mar 15 11:00 AM — Mar 30 12:00 Noon, Kraków, Weather by CustomWeather, © 2015

Note: Actual official high and low records may vary slightly from our data, if they occured in-between our weather recording intervals... More about our weather records

Advertising

Kraków weather history for previous 24 hours

 ConditionsComfort  
Time TempWeatherWind HumidityBarometerVisibility
12:00 PM
Mon, Mar 30
50 °FScattered clouds.25 mph58%29.36 "HgN/A
11:30 AM50 °FScattered clouds.26 mph58%29.36 "HgN/A
11:00 AM50 °FScattered clouds.23 mph67%29.36 "HgN/A
10:30 AM48 °FScattered clouds.21 mph71%29.36 "HgN/A
10:00 AM46 °FPassing clouds.18 mph76%29.36 "HgN/A
9:30 AM46 °FPassing clouds.21 mph76%29.36 "HgN/A
9:00 AM46 °FPassing clouds.15 mph82%29.36 "HgN/A
8:30 AM45 °FPartly sunny.15 mph81%29.36 "HgN/A
8:00 AM45 °FSprinkles. Broken clouds.22 mph76%29.36 "HgN/A
7:30 AM45 °FRain showers. Broken clouds.23 mph87%29.33 "Hg5 mi
7:00 AM48 °FSprinkles. Passing clouds.14 mph82%29.30 "Hg4 mi
6:30 AM46 °FSprinkles. Passing clouds.9 mph87%29.30 "HgN/A
6:00 AM46 °FSprinkles. Partly cloudy.10 mph87%29.30 "HgN/A
5:30 AM46 °FSprinkles. Partly cloudy.7 mph87%29.30 "HgN/A
5:00 AM46 °FSprinkles. Partly cloudy.13 mph87%29.33 "HgN/A
4:30 AM48 °FSprinkles. Partly cloudy.13 mph82%29.36 "HgN/A
4:00 AM48 °FSprinkles. Partly cloudy.13 mph82%29.36 "HgN/A
3:30 AM48 °FSprinkles. Partly cloudy.13 mph76%29.36 "HgN/A
3:00 AM48 °FLight rain. Passing clouds.8 mph76%29.39 "HgN/A
2:30 AM50 °FPassing clouds.12 mph71%29.39 "HgN/A
2:00 AM48 °FPassing clouds.7 mph76%29.42 "HgN/A
1:00 AM48 °FPassing clouds.8 mph76%29.45 "HgN/A
12:30 AM48 °FPassing clouds.6 mph82%29.47 "HgN/A
12:00 AM46 °FLight rain. Passing clouds.5 mph87%29.47 "HgN/A
11:30 PM
Sun, Mar 29
46 °FPassing clouds.5 mph87%29.50 "HgN/A
11:00 PM46 °FLight rain. Passing clouds.5 mph87%29.53 "HgN/A
10:30 PM46 °FLight rain. Passing clouds.5 mph87%29.53 "HgN/A
10:00 PM48 °FLight rain. Passing clouds.5 mph76%29.56 "HgN/A
9:30 PM48 °FPassing clouds.5 mph71%29.56 "HgN/A
9:00 PM48 °FPassing clouds.2 mph71%29.56 "HgN/A
8:30 PM48 °FPassing clouds.3 mph71%29.59 "HgN/A
8:00 PM50 °FPartly sunny.5 mph67%29.59 "HgN/A
7:30 PM50 °FPartly sunny.7 mph67%29.59 "HgN/A
7:00 PM50 °FScattered clouds.8 mph67%29.59 "HgN/A
6:30 PM50 °FScattered clouds.9 mph71%29.62 "HgN/A
6:00 PM52 °FPartly sunny.13 mph67%29.62 "HgN/A
5:30 PM52 °FPartly sunny.15 mph67%29.62 "HgN/A
5:00 PM52 °FPartly sunny.15 mph62%29.62 "HgN/A
4:30 PM52 °FPartly sunny.16 mph62%29.65 "HgN/A
4:00 PM50 °FPartly sunny.16 mph67%29.65 "HgN/A
3:30 PM52 °FPartly sunny.18 mph62%29.65 "HgN/A
3:00 PM55 °FScattered clouds.15 mph55%29.65 "HgN/A
2:30 PM54 °FScattered clouds.13 mph51%29.68 "HgN/A
2:00 PM54 °FPassing clouds.12 mph47%29.68 "HgN/A
1:30 PM54 °FPassing clouds.10 mph44%29.71 "HgN/A
1:00 PM52 °FPassing clouds.8 mph50%29.71 "HgN/A
12:30 PM52 °FPassing clouds.9 mph50%29.74 "HgN/A
12:00 PM50 °FPassing clouds.10 mph50%29.74 "HgN/A
Weather by CustomWeather, © 2015

See weather overviewHow to use our weather pages